CAPE
7 0 0 0 0 0 0 0 0 0 0 0 280 119 0 0 1 21 114 2505 2438 1624 1223 1270 2552 2665 2649 2647 2209 1852 1632 1585 1694 1747 1488 1584 1875 1999 2091 2132 2136 2406 2067 1738 1523 1357 1339 1099 1391
0 0 0 0 0 0 0 0 0 0 0 0 493 212 74 0 162 714 1801 2726 2640 1730 1499 1125 2501 2634 2588 2515 2166 1825 1733 1640 1835 1941 1748 1690 1968 2085 2004 2162 2102 2207 1981 1643 1461 1344 1308 1371 1489
0 0 0 0 0 0 0 0 0 0 0 0 483 744 1457 2200 2193 2750 2876 2635 2558 1707 1706 1814 2471 2495 2331 2153 2183 1887 1802 1770 1904 1926 1838 1823 2003 2231 2161 2249 2044 2098 1694 1488 1457 1596 1611 1392 1324
0 0 0 0 0 0 0 0 0 0 0 0 282 424 898 1684 2060 2284 2912 2316 2299 2526 1657 1899 2318 2324 2255 2159 1996 2097 1902 1914 1947 1977 1979 2046 2030 2191 2162 2261 1953 1861 1834 1691 1701 1741 1603 1383 1263
0 0 0 0 0 0 0 0 0 0 0 2 44 0 109 626 1563 1426 1903 2358 3033 2551 1034 1246 2237 2092 2067 2090 2055 2199 2195 2109 2058 2060 2042 2103 2137 2125 2106 2160 1908 1778 1715 1785 1829 1806 1679 1321 948
0 0 0 0 0 0 0 0 0 0 0 3 4 0 0 27 368 1056 1308 1539 2741 2236 1565 1318 2027 2065 2042 2014 2079 2182 2275 2287 2227 2161 2122 2237 2259 2105 2078 2142 2043 1735 1609 1671 1800 1835 1659 1209 704
0 0 0 0 4 0 0 0 0 0 0 0 0 0 0 0 0 112 582 813 1187 2969 2404 1876 1491 1873 2057 1988 2092 2164 2262 2343 2387 2324 2258 2287 2282 2114 2110 2165 2125 1865 1649 1578 1588 1560 1444 1097 551
0 0 0 0 0 0 0 0 0 0 0 0 0 0 0 0 0 0 28 575 482 2035 2680 2816 2411 1518 1356 1300 2099 2097 2087 2140 2365 2386 2333 2306 2240 2184 2108 1997 2013 1996 1837 1612 1391 1117 864 597 353
0 0 0 0 0 0 0 0 0 0 0 0 0 0 0 0 0 0 0 0 75 31 172 1588 2690 2630 2334 1516 1441 1933 1686 1790 1931 2028 2233 1930 1433 1375 1066 1157 1286 1999 1954 1726 1485 1099 750 544 401
0 0 0 0 0 0 0 0 0 0 0 0 0 0 0 0 0 0 0 0 0 0 0 101 789 1007 1031 2692 1907 1578 1236 951 985 872 1341 1480 1027 850 985 1059 1244 1892 1961 1788 1564 1208 986 595 15
0 0 0 0 0 0 0 0 0 0 0 0 0 0 0 0 0 0 0 0 0 0 0 0 0 0 45 163 2818 3233 2753 2011 1339 1096 1086 1416 814 640 486 793 893 1453 1847 999 1169 919 541 146 34
0 0 0 0 0 0 0 0 0 0 0 0 0 0 0 0 0 0 0 0 0 0 0 0 0 31 305 58 266 777 1104 2353 2470 2013 1985 1965 1899 1645 832 475 988 980 940 906 587 363 277 157 102
0 0 0 0 0 0 0 0 0 0 0 0 0 0 0 0 0 0 0 0 0 0 0 0 0 430 301 496 170 137 1152 943 954 2316 2421 1957 1967 1507 1755 1122 1110 1000 751 939 539 525 410 292 188
0 0 0 0 0 0 0 0 0 0 0 0 0 0 0 0 0 0 0 0 0 0 0 0 0 72 41 287 687 192 92 1904 1005 845 2581 2758 2295 2343 1329 2186 1442 1145 533 419 620 234 176 526 326
0 0 0 0 0 0 0 0 0 0 0 0 0 0 0 0 0 0 0 0 0 0 136 86 40 2 411 498 552 318 62 41 1320 803 1296 2705 3071 2020 2377 1917 1505 1177 1217 1321 379 483 318 601 751
0 0 0 0 0 0 0 0 0 0 0 0 0 0 0 0 0 0 0 0 0 0 52 34 0 0 0 190 589 437 147 35 21 809 440 2543 2776 2990 2621 2194 1865 1396 1426 959 1126 826 308 538 660
0 0 0 0 0 0 0 0 0 0 0 0 0 0 0 0 0 8 1 0 0 0 0 0 46 0 19 79 78 501 398 175 39 135 489 1548 2882 3009 3033 2184 2004 2654 2094 1548 1100 1028 1040 568 709
0 0 0 0 0 0 0 0 0 0 0 0 0 0 0 0 0 19 0 0 0 0 5 14 10 27 106 7 12 0 60 404 108 50 134 478 1597 2770 3006 2397 2292 2274 2199 1618 1467 941 982 1131 1040
0 0 0 0 0 0 0 0 0 0 0 0 0 0 0 0 0 0 0 0 0 0 0 30 52 136 80 0 0 0 0 0 5 131 185 718 817 1667 2256 2371 2229 2040 1860 1848 1968 1407 780 1219 1049
0 0 0 0 0 0 0 0 0 0 0 0 0 0 0 0 0 2 0 0 0 94 66 0 130 282 102 11 0 129 0 0 0 422 509 1388 1402 1252 1971 1602 1867 2079 2063 2258 2091 1620 1084 1464 1049
0 0 0 0 0 0 0 0 0 0 0 0 0 0 0 0 0 45 69 63 23 56 168 61 14 37 281 333 29 37 0 17 0 0 0 236 543 1306 891 1712 1306 1325 2322 2219 2117 1848 1399 966 1551
0 0 0 0 0 0 0 0 0 0 0 0 0 0 0 0 2 6 260 210 133 51 43 263 249 115 142 374 67 203 40 11 11 0 0 6 160 377 928 1391 1870 2163 2253 1660 1753 1897 1453 1051 912
0 0 0 0 0 0 0 1 0 39 0 0 1 0 2 0 2 38 37 78 100 124 103 416 321 297 246 380 454 113 57 2 27 30 63 40 16 62 524 189 1 0 1656 1587 1475 1864 1779 1472 1095
0 0 0 0 0 6 1 39 4 21 27 7 28 13 0 0 7 89 197 87 161 69 51 37 163 247 676 516 548 651 398 204 125 124 110 132 89 140 777 8 0 4 16 961 1490 2016 1593 1605 1663
0 0 1 0 0 0 0 0 5 17 62 43 15 3 0 0 30 101 51 104 218 49 272 190 91 538 542 479 501 516 562 380 159 200 165 73 65 91 324 145 0 0 13 1314 1682 2008 1935 1863 1677
0 0 16 4 9 0 0 0 0 79 5 5 55 87 85 75 21 0 0 42 0 8 360 227 402 553 473 451 623 647 491 128 104 118 411 189 115 107 145 204 732 151 292 938 1764 1982 1604 1846 1938
0 0 0 5 0 4 0 0 10 103 4 0 2 27 88 152 59 3 0 0 0 0 145 508 601 615 520 480 523 497 424 553 407 332 214 219 202 193 258 292 293 1212 883 702 910 2053 1605 2083 1891
0 9 44 136 45 11 0 19 72 143 67 41 1 7 53 60 0 59 4 0 0 0 73 370 495 349 263 299 350 188 277 226 192 176 187 224 247 238 236 234 304 1168 935 0 0 973 1540 1643 2003
0 1 72 164 162 213 142 0 138 195 165 212 60 61 8 84 0 0 0 61 44 0 13 319 299 172 88 117 176 216 247 146 68 25 17 31 144 206 192 253 368 958 1258 528 398 1157 1727 1200 1469
0 16 52 203 31 177 263 23 110 145 108 114 64 65 13 65 181 198 72 116 168 42 180 84 147 34 10 51 26 66 45 42 25 35 41 142 194 167 167 249 449 634 1390 1499 1291 1292 1335 1156 1299
CIN
-95 -0 -0 -0 -0 -0 -0 -0 -0 -0 -2 -0 -313 -181 -0 -0 -1 -0 -254 -3 -58 -133 -231 -220 -101 -89 -78 -63 -67 -81 -89 -91 -65 -67 -75 -66 -40 -23 -13 -20 -14 -2 -12 -20 -22 -29 -26 -32 -14
-0 -0 -0 -0 -0 -0 -0 -0 -0 -0 -0 -0 -96 -398 -28 -0 -64 -86 -101 -3 -39 -135 -164 -235 -91 -81 -79 -67 -76 -94 -84 -80 -58 -48 -61 -58 -24 -17 -14 -5 -11 -2 -10 -21 -26 -26 -24 -13 -2
-0 -0 -0 -0 -0 -0 -0 -0 -0 -0 -0 -0 -21 -34 -10 -5 -13 -4 -6 -8 -23 -94 -161 -179 -83 -74 -83 -95 -78 -82 -78 -76 -65 -53 -51 -36 -24 -10 -12 -3 -10 -3 -17 -28 -29 -16 -11 -15 -13
-0 -0 -0 -0 -0 -0 -0 -0 -0 -0 -0 -0 -19 -9 -3 -1 -1 -1 -1 -9 -3 -18 -163 -166 -92 -83 -83 -80 -82 -68 -70 -58 -54 -54 -50 -38 -26 -7 -7 -3 -14 -16 -9 -12 -12 -9 -10 -17 -24
-0 -0 -0 -0 -0 -0 -0 -0 -0 -0 -0 -0 -20 -0 -48 -8 -0 -6 -3 -1 -22 -53 -217 -229 -101 -101 -97 -90 -81 -50 -46 -52 -51 -48 -40 -28 -24 -20 -13 -6 -13 -19 -17 -4 -3 -3 -3 -27 -46
-0 -0 -0 -0 -0 -0 -0 -0 -0 -0 -0 -1 -9 -0 -0 -43 -28 -8 -60 -53 -7 -54 -141 -192 -139 -120 -113 -102 -80 -61 -44 -33 -32 -32 -33 -25 -14 -19 -12 -2 -6 -15 -22 -18 -2 -0 -1 -31 -85
-0 -0 -0 -0 -0 -0 -0 -0 -0 -0 -0 -0 -0 -0 -0 -0 -0 -54 -9 -12 -9 -44 -69 -147 -158 -151 -143 -125 -96 -72 -50 -32 -18 -13 -12 -7 -8 -14 -11 -6 -3 -9 -13 -15 -12 -6 -14 -36 -121
-0 -0 -0 -0 -0 -0 -0 -0 -0 -0 -0 -0 -0 -0 -0 -0 -0 -0 -0 -3 -6 -6 -16 -49 -113 -181 -192 -209 -161 -130 -89 -54 -26 -12 -4 -2 -1 -0 -2 -9 -6 -7 -14 -17 -26 -48 -63 -103 -147
-0 -0 -0 -0 -0 -0 -0 -0 -0 -0 -0 -0 -0 -0 -0 -0 -0 -0 -0 -0 -9 -22 -8 -19 -32 -37 -47 -99 -174 -146 -152 -106 -65 -46 -25 -28 -44 -31 -40 -45 -37 -9 -9 -17 -28 -55 -88 -107 -138
-0 -0 -0 -0 -0 -0 -0 -0 -0 -0 -0 -0 -0 -0 -0 -0 -0 -0 -0 -0 -0 -0 -0 -45 -61 -42 -3 -28 -162 -152 -174 -194 -192 -169 -90 -57 -79 -69 -44 -47 -40 -10 -7 -9 -20 -44 -69 -117 -350
-0 -0 -0 -0 -0 -0 -0 -0 -0 -0 -0 -0 -0 -0 -0 -0 -0 -0 -0 -0 -0 -0 -0 -0 -0 -0 -9 -102 -83 -20 -34 -75 -129 -152 -148 -90 -81 -86 -74 -20 -66 -31 -5 -29 -27 -64 -124 -201 -295
-0 -0 -0 -0 -0 -0 -0 -0 -0 -0 -0 -0 -0 -0 -0 -0 -0 -0 -0 -0 -0 -0 -0 -0 -0 -238 -215 -240 -102 -37 -21 -40 -46 -70 -65 -55 -38 -22 -33 -31 -41 -66 -49 -54 -48 -102 -145 -177 -204
-0 -0 -0 -0 -0 -0 -0 -0 -0 -0 -0 -0 -0 -0 -0 -0 -0 -0 -0 -0 -0 -0 -0 -0 -0 -130 -199 -151 -219 -205 -71 -29 -43 -48 -50 -42 -62 -66 -20 -24 -24 -36 -48 -59 -56 -30 -54 -82 -117
-0 -0 -0 -0 -0 -0 -0 -0 -0 -0 -0 -0 -0 -0 -0 -0 -0 -0 -0 -0 -0 -0 -0 -0 -0 -83 -113 -163 -160 -218 -189 -18 -58 -60 -27 -53 -64 -62 -38 -17 -39 -85 -98 -34 -65 -74 -85 -34 -59
-0 -0 -0 -0 -0 -0 -0 -0 -0 -0 -0 -0 -0 -0 -0 -0 -0 -0 -0 -0 -0 -0 -119 -176 -124 -10 -114 -117 -110 -163 -205 -17 -25 -44 -45 -70 -61 -106 -27 -27 -22 -30 -59 -61 -78 -54 -74 -56 -30
-0 -0 -0 -0 -0 -0 -0 -0 -0 -0 -0 -0 -0 -0 -0 -0 -0 -0 -0 -0 -0 -0 -139 -161 -0 -0 -0 -147 -68 -120 -157 -180 -79 -35 -62 -37 -56 -40 -39 -35 -34 -17 -27 -36 -53 -61 -23 -57 -49
-0 -0 -0 -0 -0 -0 -0 -0 -0 -0 -0 -0 -0 -0 -0 -0 -0 -17 -10 -0 -0 -0 -0 -0 -144 -0 -196 -151 -165 -50 -84 -140 -173 -93 -58 -37 -38 -34 -30 -42 -31 -20 -22 -31 -56 -45 -46 -46 -51
-0 -0 -0 -0 -0 -0 -0 -0 -0 -0 -0 -0 -0 -0 -0 -0 -0 -64 -6 -0 -0 -0 -99 -152 -127 -183 -93 -38 -46 -0 -15 -39 -127 -79 -67 -88 -45 -29 -42 -41 -43 -35 -15 -15 -33 -92 -51 -38 -42
-0 -0 -0 -0 -0 -0 -0 -0 -0 -0 -0 -0 -0 -0 -0 -0 -4 -0 -0 -0 -0 -0 -0 -113 -92 -61 -81 -0 -0 -0 -0 -0 -65 -101 -69 -47 -48 -41 -5 -20 -38 -42 -25 -7 -13 -52 -122 -42 -47
-0 -0 -0 -0 -0 -0 -0 -0 -0 -0 -0 -0 -0 -0 -0 -0 -0 -10 -0 -0 -0 -63 -126 -0 -47 -19 -78 -159 -15 -46 -0 -0 -0 -57 -94 -43 -36 -74 -67 -34 -5 -35 -21 -4 -11 -28 -44 -30 -68
-0 -0 -0 -0 -0 -0 -0 -0 -0 -0 -0 -0 -0 -0 -0 -0 -0 -10 -31 -40 -55 -40 -28 -80 -132 -64 -15 -29 -87 -39 -0 -56 -0 -0 -0 -120 -94 -46 -87 -87 -69 -0 -16 -6 -10 -13 -36 -53 -52
-0 -0 -0 -0 -0 -0 -0 -0 -0 -0 -0 -0 -0 -0 -0 -0 -5 -5 -10 -10 -9 -31 -62 -11 -17 -39 -27 -20 -51 -31 -72 -63 -109 -0 -0 -191 -189 -121 -64 -37 -29 -14 -16 -30 -7 -6 -17 -47 -39
-0 -0 -0 -0 -0 -0 -0 -0 -0 -1 -1 -0 -2 -0 -5 -3 -10 -8 -10 -8 -2 -13 -6 -7 -9 -3 -4 -10 -2 -35 -66 -6 -126 -144 -158 -254 -242 -246 -94 -184 -168 -0 -15 -25 -24 -13 -8 -8 -29
-0 -0 -0 -0 -0 -0 -0 -0 -0 -3 -10 -21 -6 -13 -3 -0 -2 -0 -1 -4 -15 -49 -25 -170 -51 -1 -1 -4 -3 -3 -5 -37 -73 -115 -135 -161 -172 -139 -51 -206 -0 -217 -176 -4 -19 -9 -24 -29 -9
-0 -0 -0 -0 -0 -0 -0 -0 -12 -21 -11 -6 -19 -32 -0 -0 -2 -16 -5 -13 -3 -51 -68 -121 -147 -1 -2 -9 -7 -5 -4 -5 -63 -73 -92 -169 -183 -154 -95 -226 -0 -0 -96 -16 -17 -6 -8 -19 -19
-0 -0 -0 -0 -0 -0 -0 -0 -0 -22 -36 -32 -35 -32 -30 -65 -148 -0 -0 -254 -0 -61 -6 -2 -2 -2 -4 -11 -4 -5 -7 -41 -74 -88 -39 -120 -179 -218 -234 -187 -35 -88 -0 -6 -22 -16 -22 -19 -24
-0 -0 -0 -1 -0 -0 -0 -0 -4 -36 -34 -6 -133 -113 -55 -2 -149 -240 -0 -0 -0 -0 -9 -4 -5 -4 -3 -6 -14 -11 -10 -8 -14 -39 -76 -105 -136 -160 -157 -165 -198 -4 -11 -16 -10 -11 -21 -9 -28
-0 -0 -0 -4 -3 -2 -0 -2 -0 -1 -5 -35 -63 -28 -33 -24 -6 -120 -79 -0 -0 -0 -54 -24 -9 -6 -6 -8 -4 -22 -18 -26 -45 -73 -82 -99 -121 -139 -174 -211 -170 -9 -21 -0 -0 -14 -15 -34 -15
-0 -0 -0 -1 -1 -2 -0 -0 -4 -8 -24 -4 -28 -28 -12 -13 -0 -0 -0 -137 -119 -0 -25 -5 -7 -13 -8 -11 -9 -10 -18 -45 -92 -41 -3 -166 -133 -136 -168 -164 -124 -4 -5 -149 -207 -44 -4 -21 -25
-0 -0 -1 -23 -12 -0 -1 -0 -6 -0 -9 -4 -13 -33 -110 -48 -6 -7 -38 -56 -120 -93 -15 -32 -10 -6 -7 -6 -10 -46 -59 -119 -8 -1 -2 -107 -106 -138 -168 -138 -82 -39 -1 -3 -24 -20 -26 -20 -23
Wind_Speed
14 15 11 9 6 8 15 3 7 10 7 13 20 17 20 19 9 4 18 8 24 18 12 13 14 14 13 14 14 14 13 12 11 12 10 9 9 9 8 9 8 8 8 8 8 8 8 8 7
11 18 8 6 6 9 12 10 15 13 11 9 24 26 11 20 15 8 7 11 21 17 12 12 13 13 13 12 13 14 13 12 11 11 11 10 8 9 8 7 8 7 8 8 8 7 7 6 5
10 17 5 5 12 5 8 16 14 6 7 9 11 24 16 11 13 9 8 18 18 14 16 13 13 12 12 12 12 13 12 12 12 11 11 9 9 9 8 7 7 8 8 8 8 7 6 6 4
8 5 4 4 16 4 12 14 15 10 2 6 19 12 20 16 11 9 17 17 18 21 18 15 13 12 12 12 12 12 12 12 12 12 11 11 10 8 7 8 8 7 8 7 7 7 6 5 4
8 5 8 5 18 8 5 13 19 13 6 7 19 16 18 14 13 11 7 13 24 20 17 15 12 11 11 12 12 10 11 12 12 12 11 10 10 10 9 8 8 8 7 7 7 6 6 6 4
4 9 11 11 26 8 7 8 18 14 8 16 14 16 12 13 12 11 11 14 22 20 17 14 12 11 11 11 11 10 9 9 10 11 11 11 10 10 10 8 8 8 8 8 8 7 6 6 5
9 11 13 12 0 9 3 8 12 16 11 15 20 7 11 12 9 5 10 8 14 19 17 14 13 12 13 11 11 10 9 9 9 9 9 9 10 10 10 10 9 8 8 8 8 7 7 7 6
9 11 16 12 9 10 8 5 6 8 10 12 12 15 13 8 11 10 7 10 13 18 20 17 14 14 12 13 15 15 12 10 9 9 9 9 9 10 10 10 10 10 10 9 8 8 8 7 7
6 12 8 10 7 8 11 5 8 2 8 3 10 10 10 4 7 13 12 4 10 4 5 14 17 14 14 13 11 11 13 11 9 9 10 9 7 10 11 11 12 13 11 10 10 9 8 8 9
8 9 8 10 11 9 7 3 2 1 8 8 8 5 6 5 7 5 4 8 11 13 10 12 8 1 2 13 12 10 11 9 9 9 9 7 8 8 13 15 15 14 13 12 11 10 10 8 6
10 6 7 6 10 8 10 6 10 4 12 9 8 9 4 4 5 9 13 10 11 11 11 11 9 9 12 9 7 7 7 7 8 12 11 10 7 7 7 5 8 7 10 6 8 7 6 9 8
6 2 7 5 7 4 8 10 5 9 6 8 8 4 7 2 3 9 5 9 9 12 12 11 13 10 8 7 7 6 3 7 7 10 11 6 6 4 6 5 9 9 8 9 8 7 9 11 10
10 4 2 0 4 8 8 7 9 8 11 9 3 3 8 10 4 2 7 2 9 8 11 11 11 8 7 6 6 7 8 4 5 7 12 10 7 6 5 4 4 9 9 10 9 9 9 11 11
8 6 4 5 7 3 5 10 9 11 12 8 5 8 10 11 8 3 0 6 8 9 8 10 9 7 7 6 7 7 8 4 7 5 7 12 8 5 6 3 4 5 3 7 11 11 10 9 11
9 9 13 11 8 2 1 10 17 17 12 7 5 10 13 11 12 7 2 8 8 7 9 8 7 10 9 8 7 6 7 9 6 8 6 12 10 8 6 6 5 5 5 6 5 6 8 5 5
13 14 11 13 12 7 4 12 12 4 9 9 13 12 13 12 14 10 10 7 9 9 7 7 8 9 9 7 6 5 7 8 9 7 9 8 13 10 9 7 5 7 5 6 5 4 4 5 5
11 8 8 5 6 5 11 14 12 12 13 12 12 13 13 14 13 6 10 6 10 9 5 4 5 7 9 7 7 6 7 7 9 9 8 7 13 14 8 8 8 4 4 5 5 4 4 4 5
17 15 14 13 13 7 13 15 13 14 15 14 13 15 13 15 7 14 10 9 9 7 4 4 4 6 7 5 6 7 8 5 6 9 9 10 6 13 12 11 11 8 5 7 5 2 5 4 4
13 14 15 16 14 15 15 16 16 15 17 17 16 13 11 4 8 12 8 7 7 7 2 4 5 6 6 5 7 7 7 9 10 9 11 10 10 1 11 11 11 11 7 10 7 4 5 10 5
14 15 17 15 16 15 16 20 21 21 21 20 15 8 5 7 7 11 10 7 5 7 6 1 4 6 7 5 6 4 6 8 9 8 10 13 8 8 7 15 10 7 7 10 10 8 4 4 4
14 16 16 16 18 17 20 23 20 18 17 8 5 3 6 6 5 10 12 10 9 7 8 7 5 1 4 6 6 6 7 6 7 10 10 10 16 12 13 9 9 14 11 7 10 8 8 6 2
14 16 18 17 17 16 17 18 20 20 19 11 12 13 12 14 12 6 12 11 11 9 7 7 7 5 1 4 6 8 8 9 7 8 10 12 13 14 13 14 9 13 8 9 8 8 8 6 7
14 16 15 18 19 21 19 14 17 19 3 11 10 6 4 1 3 11 14 11 8 10 10 6 5 3 2 2 3 5 8 8 9 9 12 14 14 12 14 6 2 11 10 10 10 8 10 7 7
8 15 18 19 17 16 20 15 15 10 14 17 11 7 3 5 10 11 7 1 4 7 4 10 9 4 3 2 3 6 7 9 9 10 11 11 10 11 11 4 6 5 14 16 12 12 11 10 8
11 14 10 7 9 14 20 19 14 20 20 15 13 13 12 14 9 10 8 9 4 1 7 8 10 2 2 3 3 6 7 9 11 12 9 12 11 10 13 3 3 4 16 22 15 12 11 11 9
14 13 9 16 14 17 19 14 15 13 19 17 22 25 20 21 19 16 19 19 19 25 4 3 4 4 4 5 4 5 8 8 8 10 9 10 11 13 16 17 7 16 14 22 17 10 9 9 9
11 12 14 10 13 16 14 20 19 10 16 20 23 23 22 19 16 17 17 15 16 24 22 8 6 5 4 5 4 5 7 9 8 10 11 11 12 12 15 16 16 11 13 14 14 10 11 11 11
19 14 10 6 7 16 16 21 16 12 15 4 5 13 2 8 17 15 11 7 3 14 17 11 7 5 4 6 6 6 8 9 9 10 13 13 13 14 16 18 17 15 5 7 14 18 14 13 9
16 13 12 14 11 11 13 13 16 23 24 18 16 18 16 14 9 7 8 8 6 8 22 10 10 10 8 8 8 8 8 8 10 12 13 14 15 14 16 17 17 16 11 12 11 21 17 15 13
14 12 12 5 12 14 15 20 19 19 22 16 18 13 9 10 11 11 14 13 13 17 7 4 6 10 11 9 9 8 9 10 11 13 15 14 14 14 16 16 16 16 14 12 14 17 15 14 15
Wind_Direction
286 260 241 259 257 230 267 9 3 3 42 356 101 112 147 126 138 230 251 76 107 108 124 108 104 106 114 125 128 127 130 132 134 133 133 132 131 129 120 114 114 116 118 117 115 113 108 104 100
298 297 261 265 261 330 333 29 24 21 360 312 102 95 84 140 170 246 234 85 102 118 118 107 96 102 109 121 126 129 132 137 138 138 142 143 140 139 134 124 127 131 132 131 129 125 120 118 116
270 261 275 292 252 49 320 12 348 26 327 331 60 60 79 106 122 140 111 90 106 124 99 103 93 94 102 114 123 129 135 142 146 147 148 150 150 147 143 134 135 147 149 151 148 143 137 136 142
262 215 245 270 294 89 16 357 327 320 222 10 65 62 66 71 104 78 127 136 145 116 109 103 103 104 109 114 123 132 140 147 152 155 156 157 160 157 153 145 147 160 163 170 168 156 158 156 163
268 271 246 224 275 162 27 350 321 322 337 359 77 82 73 86 102 120 89 139 101 106 112 108 109 114 115 121 128 135 142 149 156 160 161 165 166 163 165 166 166 170 179 182 184 174 176 171 192
247 241 272 234 231 112 67 354 325 343 11 25 78 84 60 62 55 66 32 57 104 108 113 125 126 128 128 128 132 137 142 148 157 166 167 168 173 170 175 178 182 184 185 187 191 190 192 193 207
250 273 263 265 292 151 99 3 338 336 20 12 336 100 98 43 17 75 114 98 95 126 133 140 147 148 145 144 145 146 152 156 161 169 172 174 178 180 182 184 187 192 192 194 191 195 204 212 216
273 271 269 269 257 96 106 197 345 357 357 339 358 15 62 40 342 332 108 141 131 153 140 146 151 164 166 167 163 158 159 166 168 173 179 178 184 190 194 189 196 194 193 195 194 197 206 213 224
256 270 262 255 75 98 132 211 153 296 275 30 1 34 58 71 24 7 354 343 108 116 97 135 164 163 184 151 161 161 163 166 178 188 189 182 206 195 208 210 207 194 195 196 195 201 205 217 231
225 251 342 37 48 22 55 315 140 267 230 166 149 95 100 49 27 105 335 353 32 36 43 60 58 328 38 150 156 177 174 178 181 190 189 210 218 226 201 198 204 196 197 197 199 203 205 216 239
257 4 54 83 37 9 337 326 264 252 275 230 142 108 84 72 101 359 12 29 17 33 26 34 56 34 7 8 182 193 175 178 189 192 187 192 217 226 235 201 183 187 196 209 205 208 220 223 225
282 20 353 76 90 298 263 265 305 270 269 57 53 33 322 261 72 112 9 342 24 23 27 359 25 19 14 353 326 345 294 181 191 192 183 193 185 250 230 201 178 190 194 206 217 215 214 221 234
279 115 195 157 233 224 292 280 258 304 265 119 278 198 261 264 256 173 146 195 59 27 21 0 3 2 352 337 335 336 318 313 304 178 183 188 195 180 260 238 217 187 201 189 205 219 218 222 228
11 292 245 195 212 276 233 265 245 227 262 160 228 267 264 274 269 266 236 69 57 49 25 20 346 326 355 339 333 321 307 288 299 281 182 187 187 204 178 238 262 287 245 215 195 210 220 204 218
283 257 215 212 202 241 330 265 250 249 238 189 215 274 272 257 262 246 351 66 46 48 45 16 329 16 3 334 323 318 308 307 247 277 272 181 183 168 222 208 229 249 276 279 287 208 204 194 212
234 227 270 164 187 164 164 273 289 3 186 203 233 252 264 271 274 258 99 73 75 55 36 43 18 8 351 315 298 290 290 293 296 270 271 190 184 188 198 206 207 221 231 249 266 266 251 190 187
208 312 324 307 203 161 216 271 272 287 281 251 234 231 247 257 247 170 112 103 87 85 42 39 50 13 336 333 327 292 273 277 279 282 284 264 184 190 196 195 214 202 234 246 237 257 230 234 194
327 330 323 310 310 249 259 283 299 287 288 285 273 259 252 253 257 111 114 96 102 93 68 19 33 15 335 349 330 351 338 302 273 280 273 278 270 197 189 206 198 191 212 240 230 175 281 236 217
310 298 297 297 292 290 290 292 285 285 281 270 271 269 265 295 112 116 117 114 130 115 66 29 10 21 345 6 347 352 348 322 313 301 284 268 262 321 218 218 202 180 196 228 223 181 205 256 222
291 282 280 291 311 316 307 298 294 279 266 260 246 265 318 281 155 136 146 157 169 156 150 126 19 6 339 3 322 326 331 306 305 295 301 298 250 256 212 202 230 193 194 233 221 215 209 245 213
283 290 300 316 316 297 285 278 284 302 297 251 172 242 286 306 254 189 159 175 190 182 164 162 153 31 321 6 334 334 326 316 336 334 322 337 336 294 269 211 181 219 215 221 223 217 209 217 203
300 338 333 315 306 295 320 296 286 275 259 245 199 210 215 222 208 211 175 189 185 191 176 174 165 161 147 14 337 339 312 320 332 315 319 320 315 313 306 298 214 195 205 219 233 218 212 205 228
307 321 310 294 282 280 277 268 283 288 241 263 245 243 257 302 238 201 220 223 196 183 196 156 123 67 70 69 316 316 315 318 310 316 310 314 303 296 293 190 157 15 272 221 223 213 203 199 217
275 283 300 293 280 267 269 267 280 305 315 310 289 241 249 284 243 238 211 314 210 141 44 22 32 324 17 17 320 309 302 309 310 306 298 290 291 298 311 168 137 148 276 261 219 212 206 202 205
319 328 314 300 319 296 318 323 321 323 309 349 13 5 340 317 306 357 328 287 271 357 162 122 224 249 288 316 341 303 304 303 296 290 297 300 297 298 305 121 184 217 259 244 229 202 194 198 201
296 288 275 293 302 305 318 293 293 10 13 8 6 4 15 15 19 29 22 16 22 338 330 40 309 289 322 316 315 313 296 285 285 287 304 309 303 300 299 299 217 187 243 258 222 219 199 187 202
314 299 295 303 288 282 286 288 285 50 49 4 356 340 341 350 2 6 23 27 34 341 309 342 322 332 333 335 312 299 298 288 301 302 291 286 288 291 290 299 304 308 217 249 282 229 204 191 201
258 249 280 276 290 274 285 305 294 326 3 96 329 282 286 332 347 350 343 325 227 256 303 334 330 314 307 294 295 307 300 295 293 300 295 288 286 285 287 289 297 303 185 207 221 259 221 203 195
319 302 262 272 281 286 294 283 326 331 335 337 346 357 350 340 342 334 315 292 265 270 279 310 305 308 323 316 308 297 292 301 305 299 290 288 285 284 285 286 289 291 268 210 226 245 229 214 213
266 301 303 9 298 285 297 280 304 324 328 351 352 15 354 302 302 318 288 274 264 249 311 284 318 323 312 293 306 314 318 318 311 303 295 295 291 288 285 283 285 288 274 256 232 237 234 218 219